Weather History for Oakdale, LA

Change the Weather History Date:

Saturday, August 9, 2014

  Actual Average (KPOE) Record (KPOE)
Temperature  
Mean Temperature 82 °F -  
Max Temperature 93 °F 89 °F 100 °F (2011)
Min Temperature 72 °F 71 °F 69 °F (2003)
Cooling Degree Days 18    
Growing Degree Days 32 (Base 50)    
Moisture  
Dew Point 75 °F    
Average Humidity 81    
Maximum Humidity 96    
Minimum Humidity 53    
Precipitation  
Precipitation 0.00 in - - ()
Sea Level Pressure  
Sea Level Pressure 30.00 in    
Wind  
Wind Speed 2 mph (WSW)    
Max Wind Speed 8 mph    
Max Gust Speed -    
Visibility 8 miles    
Events Fog , Thunderstorm    
Averages and records for this station are not official NWS values.
T = Trace of Precipitation, MM = Missing Value Source: NWS Daily Summary

Daily Weather History Graph

Daily Weather History Graph

Search for Another Location

Airport:

Trip Planner

Search our weather history database for the weather conditions in past years. The results will help you decide how hot, cold, wet, or windy it might be!

Date:

Astronomy

Aug. 09, 2014 Rise Set
Actual Time 6:33 AM CDT 7:58 PM CDT
Civil Twilight 6:07 AM CDT 8:24 PM CDT
Nautical Twilight 5:36 AM CDT 8:54 PM CDT
Astronomical Twilight 5:04 AM CDT 9:26 PM CDT
Moon 7:02 PM CDT (8/9) 5:14 AM CDT (8/9)
Length of Visible Light 14h 16m
Length of Day
13h 25m
Waxing Gibbous, 98% of the Moon is Illuminated
Aug 9
Waxing Gibbous
Aug 10
Full
Aug 17
Last Quarter
Aug 25
New
Sep 2
First Quarter

Hourly Weather History & Observations

Time (CDT) Temp. Heat Index Dew Point Humidity Pressure Visibility Wind Dir Wind Speed Gust Speed Precip Events Conditions
12:35 AM 76.8 °F - 75.2 °F 95% 29.99 in 5.0 mi Calm Calm - N/A   Clear
12:55 AM 77.0 °F - 75.4 °F 95% 29.98 in 5.0 mi South 3.5 mph - N/A   Clear
1:15 AM 76.6 °F - 75.2 °F 95% 29.98 in 7.0 mi Calm Calm - N/A   Clear
1:35 AM 76.3 °F - 74.7 °F 95% 29.99 in 7.0 mi Calm Calm - N/A   Clear
1:55 AM 75.6 °F - 74.1 °F 95% 29.99 in 4.0 mi Calm Calm - N/A   Clear
2:15 AM 75.2 °F - 73.8 °F 95% 29.99 in 4.0 mi Calm Calm - N/A   Clear
2:35 AM 75.0 °F - 73.6 °F 95% 29.99 in 4.0 mi Calm Calm - N/A   Clear
2:55 AM 74.8 °F - 73.4 °F 95% 29.99 in 5.0 mi Calm Calm - N/A   Clear
3:15 AM 74.5 °F - 73.0 °F 95% 29.98 in 4.0 mi Calm Calm - N/A   Clear
3:35 AM 74.7 °F - 73.4 °F 96% 29.98 in 5.0 mi Calm Calm - N/A   Scattered Clouds
3:55 AM 74.3 °F - 73.2 °F 96% 29.98 in 4.0 mi Calm Calm - N/A   Mostly Cloudy
4:15 AM 74.1 °F - 72.7 °F 95% 29.99 in 4.0 mi Calm Calm - N/A   Scattered Clouds
4:35 AM 74.3 °F - 72.9 °F 95% 29.99 in 5.0 mi Calm Calm - N/A   Mostly Cloudy
4:55 AM 73.8 °F - 72.5 °F 96% 29.99 in 5.0 mi Calm Calm - N/A   Overcast
5:15 AM 73.6 °F - 72.5 °F 96% 29.99 in 2.5 mi Calm Calm - N/A   Overcast
5:35 AM 73.6 °F - 72.3 °F 96% 29.99 in 3.0 mi Calm Calm - N/A   Overcast
5:55 AM 73.4 °F - 72.0 °F 95% 29.99 in 4.0 mi Calm Calm - N/A   Overcast
6:15 AM 73.0 °F - 71.6 °F 95% 30.00 in 0.8 mi Calm Calm - N/A   Overcast
6:35 AM 72.9 °F - 71.6 °F 96% 30.00 in 0.2 mi Calm Calm - N/A Fog Fog
6:55 AM 73.4 °F - 72.0 °F 95% 30.00 in 0.8 mi Calm Calm - N/A   Overcast
7:15 AM 74.3 °F - 73.0 °F 96% 30.00 in 1.2 mi Calm Calm - N/A   Overcast
7:35 AM 76.3 °F - 75.2 °F 96% 30.00 in 3.0 mi Calm Calm - N/A   Overcast
7:55 AM 77.2 °F - 75.9 °F 96% 30.01 in 4.0 mi Calm Calm - N/A   Overcast
8:15 AM 79.2 °F - 77.5 °F 95% 30.02 in 10.0 mi Calm Calm - N/A   Mostly Cloudy
8:35 AM 80.8 °F 87.6 °F 77.4 °F 89% 30.02 in 10.0 mi SW 5.8 mph - N/A   Scattered Clouds
8:55 AM 82.8 °F 92.2 °F 77.9 °F 85% 30.02 in 10.0 mi SW 5.8 mph - N/A   Clear
9:15 AM 84.9 °F 97.0 °F 78.4 °F 81% 30.03 in 10.0 mi West 4.6 mph - N/A   Scattered Clouds
9:35 AM 85.6 °F 98.2 °F 78.6 °F 79% 30.04 in 10.0 mi SW 6.9 mph - N/A   Mostly Cloudy
9:55 AM 85.3 °F 96.7 °F 77.5 °F 78% 30.05 in 10.0 mi WSW 4.6 mph - N/A   Scattered Clouds
10:15 AM 86.9 °F 99.3 °F 77.7 °F 74% 30.05 in 10.0 mi West 4.6 mph - N/A   Scattered Clouds
10:35 AM 87.4 °F 99.2 °F 77.2 °F 71% 30.06 in 10.0 mi WSW 4.6 mph - N/A   Scattered Clouds
10:55 AM 88.5 °F 101.6 °F 77.5 °F 70% 30.06 in 10.0 mi SW 6.9 mph - N/A   Scattered Clouds
11:15 AM 89.2 °F 101.8 °F 77.0 °F 67% 30.05 in 10.0 mi WSW 6.9 mph - N/A   Scattered Clouds
11:35 AM 89.6 °F 101.6 °F 76.5 °F 65% 30.05 in 10.0 mi West 5.8 mph - N/A   Scattered Clouds
11:55 AM 88.9 °F 100.3 °F 76.1 °F 66% 30.05 in 10.0 mi WSW 5.8 mph - N/A   Scattered Clouds
12:15 PM 90.7 °F 101.9 °F 75.6 °F 61% 30.05 in 10.0 mi West 4.6 mph - N/A   Clear
12:35 PM 91.4 °F 103.1 °F 75.7 °F 60% 30.04 in 10.0 mi WNW 4.6 mph - N/A   Scattered Clouds
12:55 PM 91.6 °F 102.3 °F 75.0 °F 58% 30.04 in 10.0 mi WSW 5.8 mph - N/A   Scattered Clouds
1:15 PM 91.9 °F 104.5 °F 76.3 °F 60% 30.03 in 10.0 mi SW 5.8 mph - N/A   Scattered Clouds
1:35 PM 89.1 °F 99.1 °F 74.8 °F 63% 30.02 in 10.0 mi Calm Calm - N/A   Scattered Clouds
1:55 PM 89.6 °F 100.4 °F 75.4 °F 63% 30.01 in 10.0 mi West 4.6 mph - N/A   Mostly Cloudy
2:15 PM 91.6 °F 104.3 °F 76.3 °F 61% 30.01 in 10.0 mi West 3.5 mph - N/A   Scattered Clouds
2:35 PM 92.3 °F 103.4 °F 75.0 °F 57% 29.99 in 10.0 mi West 4.6 mph - N/A   Clear
2:55 PM 92.5 °F 102.6 °F 74.1 °F 55% 29.98 in 10.0 mi WSW 5.8 mph - N/A   Scattered Clouds
3:15 PM 92.3 °F 101.5 °F 73.6 °F 54% 29.98 in 10.0 mi WSW 3.5 mph - N/A   Clear
3:35 PM 93.2 °F 104.3 °F 74.8 °F 55% 29.97 in 10.0 mi WNW 5.8 mph - N/A   Scattered Clouds
4:15 PM 92.5 °F 102.6 °F 74.1 °F 55% 29.97 in 10.0 mi Calm Calm - N/A   Clear
4:35 PM 92.5 °F 101.3 °F 73.0 °F 53% 29.96 in 10.0 mi Calm Calm - N/A   Scattered Clouds
4:55 PM 89.2 °F 100.1 °F 75.7 °F 64% 29.96 in 10.0 mi SW 8.1 mph - N/A   Scattered Clouds
5:15 PM 88.3 °F 99.5 °F 76.3 °F 67% 29.96 in 10.0 mi SSE 4.6 mph - N/A   Mostly Cloudy
5:35 PM 88.2 °F 98.5 °F 75.6 °F 66% 29.96 in 10.0 mi SSE 5.8 mph - N/A   Scattered Clouds
5:55 PM 84.7 °F 92.5 °F 74.5 °F 71% 29.95 in 10.0 mi South 4.6 mph - N/A   Clear
6:15 PM 86.0 °F 95.1 °F 75.2 °F 70% 29.96 in 10.0 mi SSW 4.6 mph - N/A   Clear
6:35 PM 84.6 °F 92.8 °F 75.0 °F 73% 29.97 in 10.0 mi Calm Calm - N/A   Clear
6:55 PM 84.4 °F 93.1 °F 75.7 °F 75% 29.97 in 10.0 mi Calm Calm - N/A   Clear
7:15 PM 83.5 °F 92.2 °F 76.3 °F 79% 29.97 in 10.0 mi Calm Calm - N/A Thunderstorm Clear
7:35 PM 82.8 °F 91.6 °F 77.0 °F 83% 29.99 in 10.0 mi Calm Calm - N/A Thunderstorm Clear
7:55 PM 81.5 °F 89.0 °F 76.8 °F 86% 30.01 in 10.0 mi NE 4.6 mph - N/A   Scattered Clouds
8:15 PM 81.7 °F 88.5 °F 75.7 °F 82% 30.01 in 10.0 mi ENE 3.5 mph - N/A   Overcast
8:35 PM 80.2 °F 85.8 °F 76.1 °F 87% 30.00 in 10.0 mi Calm Calm - N/A   Scattered Clouds
8:55 PM 79.0 °F - 76.1 °F 91% 30.00 in 10.0 mi Calm Calm - N/A   Clear
9:15 PM 78.4 °F - 76.3 °F 93% 30.01 in 10.0 mi Calm Calm - N/A   Clear
9:35 PM 78.8 °F - 75.9 °F 91% 30.01 in 10.0 mi Calm Calm - N/A   Clear
9:55 PM 78.1 °F - 75.6 °F 92% 30.01 in 10.0 mi Calm Calm - N/A   Clear
10:15 PM 77.7 °F - 75.2 °F 92% 30.02 in 10.0 mi Calm Calm - N/A   Clear
11:15 PM 77.0 °F - 75.2 °F 94% 30.03 in 10.0 mi Calm Calm - N/A   Clear
11:35 PM 76.5 °F - 74.7 °F 94% 30.03 in 10.0 mi Calm Calm - N/A   Clear
11:55 PM 76.6 °F - 73.9 °F 91% 30.03 in 10.0 mi Calm Calm - N/A   Clear